TimePST,TemperatureF,Dew PointF,Humidity,Sea Level PressureIn,VisibilityMPH,Wind Direction,Wind SpeedMPH,Gust SpeedMPH,PrecipitationIn,Events,Conditions,WindDirDegrees,DateUTC
12:53 AM,33.1,33.1,100,30.57,0.2,Calm,Calm,-,N/A,Fog,Fog,0,2013-12-24 08:53:00
1:41 AM,33.1,33.1,100,30.58,0.5,Calm,Calm,-,N/A,Fog,Fog,0,2013-12-24 09:41:00
1:53 AM,33.1,33.1,100,30.59,0.5,Calm,Calm,-,N/A,Fog,Fog,0,2013-12-24 09:53:00
1:57 AM,33.1,33.1,100,30.59,0.2,Calm,Calm,-,N/A,Fog,Fog,0,2013-12-24 09:57:00
2:09 AM,33.1,33.1,100,30.58,1.0,Calm,Calm,-,N/A,,Overcast,0,2013-12-24 10:09:00
2:22 AM,33.1,33.1,100,30.59,2.0,Calm,Calm,-,N/A,,Overcast,0,2013-12-24 10:22:00
2:33 AM,33.1,33.1,100,30.59,6.0,NE,3.5,-,N/A,,Overcast,40,2013-12-24 10:33:00
2:53 AM,33.1,33.1,100,30.61,8.0,Calm,Calm,-,N/A,,Overcast,0,2013-12-24 10:53:00
3:07 AM,34.0,34.0,100,30.61,9.0,Calm,Calm,-,N/A,,Overcast,0,2013-12-24 11:07:00
3:42 AM,35.1,35.1,100,30.61,7.0,Calm,Calm,-,N/A,,Overcast,0,2013-12-24 11:42:00
3:49 AM,33.8,33.8,100,30.62,1.8,NNE,3.5,-,N/A,,Overcast,20,2013-12-24 11:49:00
3:53 AM,34.0,34.0,100,30.62,1.0,Calm,Calm,-,N/A,,Overcast,0,2013-12-24 11:53:00
4:12 AM,34.0,34.0,100,30.62,2.0,SE,3.5,-,N/A,,Mostly Cloudy,140,2013-12-24 12:12:00
4:19 AM,33.1,33.1,100,30.63,1.2,SSE,3.5,-,N/A,,Mostly Cloudy,160,2013-12-24 12:19:00
4:28 AM,33.1,33.1,100,30.62,0.5,Calm,Calm,-,N/A,Fog,Fog,0,2013-12-24 12:28:00
4:48 AM,32.0,32.0,100,30.62,0.2,Calm,Calm,-,N/A,Fog,Fog,0,2013-12-24 12:48:00
4:53 AM,32.0,32.0,100,30.63,0.5,Calm,Calm,-,N/A,Fog,Fog,0,2013-12-24 12:53:00
5:12 AM,32.0,32.0,100,30.62,0.2,Calm,Calm,-,N/A,Fog,Fog,0,2013-12-24 13:12:00
5:27 AM,32.0,32.0,100,30.62,0.5,Calm,Calm,-,N/A,Fog,Fog,0,2013-12-24 13:27:00
5:36 AM,30.9,30.9,100,30.62,0.2,Calm,Calm,-,N/A,Fog,Light Freezing Fog,0,2013-12-24 13:36:00
5:53 AM,30.9,30.9,100,30.62,0.5,Calm,Calm,-,N/A,Fog,Light Freezing Fog,0,2013-12-24 13:53:00
6:26 AM,30.0,30.0,100,30.62,1.0,Variable,4.6,-,N/A,,Mist,0,2013-12-24 14:26:00
6:35 AM,30.9,30.9,100,30.62,0.5,ESE,6.9,-,N/A,Fog,Light Freezing Fog,120,2013-12-24 14:35:00
6:53 AM,32.0,32.0,100,30.63,0.5,NE,3.5,-,N/A,Fog,Fog,40,2013-12-24 14:53:00
7:08 AM,32.0,32.0,100,30.62,0.2,North,5.8,-,N/A,Fog,Fog,360,2013-12-24 15:08:00
7:20 AM,32.0,32.0,100,30.62,0.5,North,9.2,-,N/A,Fog,Fog,350,2013-12-24 15:20:00
7:53 AM,33.1,33.1,100,30.62,0.5,NNE,5.8,-,N/A,Fog,Fog,20,2013-12-24 15:53:00
8:03 AM,32.0,32.0,100,30.61,0.2,North,3.5,-,N/A,Fog,Fog,10,2013-12-24 16:03:00
8:53 AM,33.1,33.1,100,30.62,0.2,NNW,4.6,-,N/A,Fog,Fog,340,2013-12-24 16:53:00
9:53 AM,34.0,34.0,100,30.62,0.2,North,6.9,-,N/A,Fog,Fog,10,2013-12-24 17:53:00
10:53 AM,36.0,36.0,100,30.62,0.2,Calm,Calm,-,N/A,Fog,Fog,0,2013-12-24 18:53:00
11:38 AM,39.0,39.0,100,30.59,1.0,NNW,3.5,-,N/A,,Mist,330,2013-12-24 19:38:00
11:43 AM,39.0,39.0,100,30.59,3.0,NNW,4.6,-,N/A,,Overcast,340,2013-12-24 19:43:00
11:53 AM,39.9,39.9,100,30.59,6.0,North,5.8,-,N/A,,Overcast,350,2013-12-24 19:53:00
12:53 PM,42.1,41.0,96,30.57,8.0,North,9.2,-,N/A,,Mostly Cloudy,10,2013-12-24 20:53:00
1:09 PM,41.0,39.9,96,30.56,8.0,North,9.2,-,N/A,,Mostly Cloudy,10,2013-12-24 21:09:00
1:49 PM,42.8,41.0,93,30.55,9.0,NNW,6.9,-,N/A,,Scattered Clouds,340,2013-12-24 21:49:00
1:53 PM,42.1,41.0,96,30.56,9.0,NNW,6.9,-,N/A,,Scattered Clouds,340,2013-12-24 21:53:00
2:29 PM,41.0,39.9,96,30.56,7.0,North,6.9,-,N/A,,Mostly Cloudy,360,2013-12-24 22:29:00
2:53 PM,41.0,39.9,96,30.56,10.0,North,6.9,-,N/A,,Mostly Cloudy,360,2013-12-24 22:53:00
3:04 PM,39.9,39.0,97,30.55,10.0,NNE,6.9,-,N/A,,Scattered Clouds,20,2013-12-24 23:04:00
3:53 PM,41.0,39.0,93,30.55,9.0,ENE,4.6,-,N/A,,Scattered Clouds,70,2013-12-24 23:53:00
4:53 PM,37.0,37.0,100,30.55,6.0,NE,4.6,-,N/A,,Clear,50,2013-12-25 00:53:00
5:00 PM,37.0,37.0,100,30.54,7.0,ENE,3.5,-,N/A,,Partly Cloudy,60,2013-12-25 01:00:00
5:42 PM,36.0,36.0,100,30.53,5.0,North,4.6,-,N/A,,Mostly Cloudy,360,2013-12-25 01:42:00
5:53 PM,36.0,36.0,100,30.54,3.0,North,5.8,-,N/A,,Overcast,350,2013-12-25 01:53:00
5:56 PM,36.0,36.0,100,30.53,1.8,North,6.9,-,N/A,,Overcast,360,2013-12-25 01:56:00
6:06 PM,36.0,36.0,100,30.53,0.5,North,5.8,-,N/A,Fog,Fog,10,2013-12-25 02:06:00
6:46 PM,36.0,36.0,100,30.53,0.2,ENE,5.8,-,N/A,Fog,Fog,60,2013-12-25 02:46:00
6:53 PM,36.0,36.0,100,30.53,0.5,NE,6.9,-,N/A,Fog,Fog,50,2013-12-25 02:53:00
7:53 PM,36.0,36.0,100,30.54,1.0,NE,4.6,-,N/A,,Mist,50,2013-12-25 03:53:00
8:17 PM,37.0,37.0,100,30.53,3.0,NNE,4.6,-,N/A,,Overcast,20,2013-12-25 04:17:00
8:53 PM,37.0,37.0,100,30.53,5.0,NE,3.5,-,N/A,,Overcast,40,2013-12-25 04:53:00
9:02 PM,37.0,37.0,100,30.52,5.0,NE,3.5,-,N/A,,Overcast,50,2013-12-25 05:02:00
9:18 PM,37.0,37.0,100,30.51,5.0,NE,3.5,-,N/A,,Overcast,40,2013-12-25 05:18:00
9:33 PM,37.0,37.0,100,30.51,1.8,NE,3.5,-,N/A,,Overcast,50,2013-12-25 05:33:00
9:53 PM,37.0,37.0,100,30.52,0.8,NE,4.6,-,N/A,,Mist,40,2013-12-25 05:53:00
10:53 PM,37.0,37.0,100,30.52,0.8,NNE,5.8,-,N/A,,Mist,30,2013-12-25 06:53:00
11:00 PM,37.0,37.0,100,30.51,1.5,NNE,4.6,-,N/A,,Overcast,30,2013-12-25 07:00:00
11:25 PM,37.0,37.0,100,30.51,3.0,NNE,5.8,-,N/A,,Overcast,30,2013-12-25 07:25:00
11:53 PM,37.0,37.0,100,30.51,4.0,NNE,4.6,-,N/A,,Overcast,30,2013-12-25 07:53:00